SCP
0 0 0 0 0 0 0 0 0 0 0 0 0 0 0 0 0 0 0 0 0 0 0 0 0 0 0 0 0 0 0 0 0 0 0 0 0 0 0 0 0 0 0 0
0 0 0 0 0 0 0 0 0 0 0 0 0 0 0 0 0 0 0 0 0 0 0 0 0 0 0 0 0 0 0 0 0 0 0 0 0 0 0 0 0 0 0 0
0 0 0 0 0 0 0 0 0 0 0 0 0 -0 0 0 0 0 0 0 0 0 0 0 0 0 0 0 0 0 0 0 0 0 0 0 0 0 0 0 0 0 0 0
0 0 0 0 0 0 0 0 0 0 0 0 0 0 0 0 0 0 0 0 0 0 0 0 0 0 0 0 0 0 0 0 0 0 0 0 0 0 0 0 0 0 0 0
0 0 0 0 0 0 0 0 0 0 0 0 0 0 -0 0 0 0 0 0 0 0 0 0 0 0 0 0 0 0 0 0 0 0 0 0 0 0 0 0 0 0 0 0
0 0 0 0 0 0 0 0 0 0 0 0 0 0 -0 0 0 0 0 0 0 0 0 0 0 0 0 0 0 0 0 0 0 0 0 0 0 0 0 0 0 0 0 0
0 0 0 0 0 0 0 0 0 0 0 0 0 0 0 0 0 0 0 0 0 0 0 0 0 0 0 0 0 0 0 0 0 0 0 0 0 0 0 0 0 0 0 0
0 0 0 0 0 0 0 0 0 0 0 0 0 0 0 0 0 0 0 0 0 0 0 0 0 0 0 0 0 0 0 0 0 0 0 0 0 0 0 0 0 0 0 0
0 0 0 0 0 0 0 0 0 0 0 0 0 0 0 0 0 0 0 0 0 0 0 0 0 0 0 0 0 0 0 0 0 0 0 0 0 0 0 0 0 0 0 0
0 0 0 0 0 0 0 0 0 0 0 0 0 0 0 0 0 0 0 0 0 0 0 0 0 0 0 0 0 0 0 0 0 0 0 0 0 0 0 0 0 0 0 0
0 0 0 0 0 0 0 0 0 0 0 0 0 0 0 0 0 0 0 0 0 0 0 0 0 0 0 0 0 0 0 0 0 0 0 0 0 0 0 0 0 0 0 0
0 0 0 0 0 0 0 0 0 0 0 0 0 0 0 0 0 0 0 0 0 0 0 0 0 0 0 0 0 0 0 0 0 0 0 0 0 0 0 0 0 0 0 0
0 0 0 0 0 0 0 0 0 0 0 0 0 0 0 0 0 0 0 0 0 0 0 0 0 0 0 0 0 0 0 0 0 0 0 0 0 0 0 0 0 0 0 0
0 0 0 0 0 0 0 0 0 0 0 0 0 0 0 0 0 0 0 0 0 0 0 0 0 0 0 0 0 0 0 0 0 0 0 0 0 0 0 0 0 0 0 0
0 0 0 0 0 0 0 0 0 0 0 0 0 0 0 0 0 0 0 0 0 0 0 0 0 0 0 0 0 0 0 0 0 0 0 0 0 0 0 0 0 0 0 0
0 0 0 0 0 0 0 0 0 0 0 0 0 0 0 0 0 0 0 0 0 0 0 0 0 0 0 0 0 0 0 0 0 0 0 0 0 0 0 0 0 0 0 0
0 0 0 0 0 0 0 0 0 0 0 0 0 0 0 0 0 0 0 0 0 0 0 0 0 0 0 0 0 0 0 0 0 0 0 0 0 0 0 0 0 0 0 0
0 0 0 0 0 0 0 0 0 0 0 0 0 0 0 0 0 0 0 0 0 0 0 0 0 0 0 0 0 0 0 0 0 0 0 0 0 0 0 0 0 0 0 0
0 0 0 0 0 0 0 0 0 0 0 0 0 0 0 0 0 0 0 0 0 0 0 0 0 0 0 0 0 0 0 0 0 0 0 0 0 0 0 0 0 0 0 0
0 0 0 0 0 0 0 -0 0 0 0 0 0 0 0 0 0 0 0 0 0 0 0 0 0 0 0 0 0 0 0 0 0 0 0 0 0 0 0 0 0 0 0 0
0 0 0 0 0 0 0 0 0 0 0 0 0 0 0 0 0 0 0 0 0 0 0 0 0 0 0 0 0 0 0 0 0 0 0 0 0 0 0 0 0 0 0 0
0 0 0 0 0 0 0 0 0 0 0 0 0 0 -0 0 0 0 0 0 0 0 0 0 0 0 0 0 0 0 0 0 0 0 0 0 0 0 0 0 0 0 0 0
0 0 0 0 0 0 0 0 0 0 0 0 -0 0 0 0 0 0 0 0 0 0 0 0 0 0 0 0 0 0 0 0 0 0 0 0 0 0 0 0 0 0 0 0
0 0 0 0 0 0 -0 -0 -0 -0 -0 0 -0 0 0 -0 -0 -0 -0 0 0 0 0 0 0 0 0 0 0 0 0 0 0 0 0 0 0 0 0 0 0 0 0 0
0 0 0 0 0 0 0 0 0 -0 0 -0 -0 -0 -0 -0 -0 -0 -0 0 0 0 0 0 0 0 0 0 0 0 0 0 0 0 0 0 0 0 0 0 0 0 0 0
0 0 0 0 0 0 0 0 0 0 0 0 -0 -0 -0 -0 -0 -0 -0 0 0 0 0 0 0 0 0 0 0 0 0 0 0 0 0 0 0 0 0 0 0 0 0 0
Wind_Speed_500mb
13 6 8 17 15 10 4 12 10 10 7 3 25 23 17 33 29 32 34 32 29 26 22 17 18 18 21 22 23 22 24 21 16 9 10 11 5 3 6 10 12 10 12 11
5 10 11 12 9 5 4 10 9 5 7 3 14 23 23 25 36 45 41 36 32 31 28 23 22 25 26 29 28 28 26 22 22 17 18 16 12 5 7 8 6 6 6 9
10 5 12 11 7 8 8 8 7 5 8 7 9 21 25 23 35 41 40 44 46 49 39 34 31 31 33 32 31 30 28 24 18 16 19 14 10 8 7 4 2 2 6 7
13 8 10 13 13 12 9 12 4 10 6 5 11 12 11 29 34 34 47 54 62 55 43 41 37 35 34 32 29 29 27 23 20 19 15 13 11 14 11 9 5 2 3 4
3 13 9 12 13 12 1 8 4 5 9 11 11 9 10 13 26 30 46 53 52 57 53 49 43 38 37 32 32 29 27 25 23 24 23 23 25 19 15 12 10 4 1 1
10 8 3 11 11 10 8 6 4 3 6 6 20 15 8 7 15 19 37 53 59 58 55 50 42 44 37 33 34 31 30 27 26 27 26 26 19 18 18 17 12 6 5 3
14 13 4 1 9 11 10 8 1 4 3 10 2 15 18 25 14 16 19 53 60 58 56 53 53 48 39 34 34 34 32 30 29 26 25 24 24 21 21 19 13 11 8 8
16 9 20 16 15 10 19 15 8 8 4 7 5 12 10 5 4 11 11 13 56 57 58 55 53 45 41 37 37 36 36 35 32 29 29 27 26 24 23 20 17 14 15 16
8 15 11 21 11 15 15 22 17 13 4 2 10 13 16 9 4 2 9 37 60 62 61 59 52 46 46 43 41 40 36 36 34 32 30 29 28 28 25 22 20 23 21 19
10 10 2 8 4 15 8 2 13 7 5 10 12 15 16 9 13 13 14 34 48 54 52 50 50 52 49 44 42 40 38 37 38 39 36 33 31 27 26 27 27 25 24 21
7 5 5 8 12 14 7 6 11 13 11 6 6 9 6 8 5 17 22 34 49 53 54 56 57 54 50 47 45 46 46 44 42 39 37 36 35 35 31 29 27 28 24 21
13 3 15 16 14 14 22 32 26 10 9 13 13 23 11 14 13 20 33 42 42 52 54 57 57 57 56 52 50 49 48 46 42 37 37 37 36 35 34 34 32 28 23 19
14 9 9 12 3 7 10 20 17 25 15 23 9 13 3 14 11 11 28 39 44 49 54 56 56 61 59 56 55 53 53 51 48 46 47 47 43 40 39 35 32 29 25 21
1 8 19 26 21 16 13 26 30 29 21 42 35 54 9 9 14 21 27 40 46 56 56 58 61 64 64 61 58 59 58 56 53 52 52 49 46 43 41 37 34 29 25 22
8 10 8 26 31 26 28 16 35 34 43 33 58 50 41 32 21 37 46 48 51 58 60 64 68 69 69 68 67 64 60 59 59 60 57 53 50 47 43 39 35 30 27 25
15 14 20 37 42 26 30 32 18 34 53 48 55 56 42 33 24 13 47 55 62 64 64 65 70 71 77 79 74 70 69 68 67 66 61 58 55 50 46 42 37 33 31 28
8 8 13 27 29 26 31 43 49 45 27 34 38 67 28 25 24 45 51 60 71 72 69 69 75 77 81 83 79 78 75 73 74 71 66 62 58 54 49 44 40 37 34 30
12 15 8 19 8 30 19 26 50 53 52 48 44 50 43 35 50 66 73 71 81 75 70 70 73 77 82 83 82 80 80 80 79 75 70 66 61 56 52 47 44 40 36 32
39 17 9 11 16 22 16 17 17 26 55 53 52 68 87 72 67 71 100 86 88 88 79 78 81 82 82 86 88 87 87 85 83 81 75 71 65 60 56 52 47 43 39 33
32 30 19 22 26 18 31 43 33 20 32 48 53 61 55 54 25 41 81 94 96 96 91 91 88 86 84 89 94 96 95 94 92 86 78 71 66 62 58 53 49 44 39 36
9 13 32 33 26 22 32 40 11 31 25 55 64 71 70 34 46 106 63 53 71 85 93 87 88 93 89 96 101 105 102 103 96 85 79 74 68 62 58 54 50 46 43 38
16 10 20 15 26 51 28 26 48 16 43 50 33 58 42 49 66 84 83 78 70 61 69 80 88 92 92 99 105 108 108 102 95 88 81 76 70 66 61 57 52 49 45 41
20 28 19 18 29 17 33 18 57 67 61 55 47 57 60 60 61 59 56 62 71 72 69 76 84 90 94 101 106 110 108 105 98 91 85 77 71 67 61 57 55 52 47 43
16 14 21 9 53 50 86 84 46 46 52 67 57 42 50 65 77 83 70 64 66 72 76 83 90 96 101 104 106 107 110 105 99 93 86 79 74 70 64 59 56 52 49 46
19 1 11 40 56 56 89 72 76 83 75 65 59 54 60 71 80 77 78 74 72 73 79 86 95 101 103 104 108 111 108 105 102 93 86 81 76 69 64 60 55 52 47 44
37 39 24 35 43 39 52 61 37 34 49 59 63 77 75 75 84 84 80 71 69 74 80 86 91 96 98 101 108 110 109 106 100 94 88 82 75 69 64 60 57 54 50 48
Wind_Direction_500mb
199 209 184 188 193 72 28 165 197 220 141 270 242 254 211 194 207 220 202 193 196 205 207 210 197 193 183 185 201 213 227 234 235 207 179 224 243 273 65 71 71 60 57 55
118 239 202 52 61 103 275 181 212 168 95 153 292 277 265 208 205 207 208 203 202 202 204 203 202 195 193 191 200 208 221 224 217 201 213 222 211 197 109 102 72 58 21 30
206 82 195 131 176 200 224 252 224 247 141 219 295 273 239 243 207 209 216 213 206 214 208 204 200 199 200 204 202 213 219 224 216 206 217 210 193 164 158 154 112 36 13 51
247 172 169 148 224 207 246 177 271 283 171 260 138 291 250 225 224 198 208 212 205 207 209 208 205 205 210 207 206 211 218 219 216 196 193 184 210 224 219 193 198 150 14 21
185 141 172 188 216 207 82 83 135 203 250 274 185 274 273 229 220 212 211 210 206 207 208 201 207 208 215 210 212 211 215 214 210 202 192 200 211 228 204 199 212 208 195 87
231 22 254 219 204 214 104 164 166 286 240 279 217 180 252 197 231 232 211 210 209 203 203 203 207 214 214 211 216 212 213 209 208 209 213 214 214 201 202 204 204 186 169 162
249 207 150 357 226 184 159 162 307 263 241 237 185 186 246 281 244 221 207 204 205 199 197 198 204 211 215 213 217 210 208 207 209 211 213 214 213 211 209 204 200 188 183 165
210 220 165 183 212 173 207 198 180 226 233 308 29 243 259 171 80 61 189 228 192 191 194 199 208 212 211 214 213 210 205 205 206 205 207 208 209 208 209 209 199 188 169 154
243 225 131 152 195 206 183 219 238 316 350 349 239 256 286 93 107 220 208 171 179 187 192 202 212 211 211 212 214 212 208 205 205 204 208 211 210 210 207 205 190 175 164 156
314 294 94 103 60 280 255 169 207 232 227 241 245 245 243 220 223 185 190 174 174 186 195 205 209 208 212 212 213 213 211 211 208 206 208 210 211 203 197 185 178 170 168 159
176 271 356 71 210 188 193 231 236 176 213 228 296 259 239 108 109 182 184 186 181 185 192 199 206 214 212 210 210 212 211 210 211 209 207 202 194 189 183 183 178 177 171 164
191 274 243 204 221 224 231 218 215 209 223 220 252 257 241 170 151 157 182 190 194 200 201 211 217 216 213 211 212 212 211 212 214 210 201 194 189 184 184 184 183 178 177 175
165 223 254 316 224 199 221 235 244 241 255 250 206 263 53 93 133 173 175 189 196 202 208 216 217 215 215 213 213 213 212 210 207 200 194 190 192 191 189 187 186 186 184 183
310 239 201 222 221 160 200 219 227 224 232 242 238 252 247 201 198 190 200 201 200 203 210 214 218 217 215 216 217 214 209 206 202 197 195 194 193 193 191 191 192 191 191 188
127 243 304 279 271 273 264 224 224 227 234 231 242 248 247 251 253 215 224 197 195 205 211 214 219 219 216 215 214 211 209 204 200 197 197 195 196 195 194 194 196 196 195 196
175 241 241 265 267 263 272 270 256 237 235 242 253 260 253 247 279 238 191 196 203 212 221 223 225 222 216 216 214 210 208 203 200 199 198 198 198 197 197 198 199 199 199 201
293 230 198 243 243 262 253 236 243 245 255 240 239 248 258 254 250 255 218 215 221 228 226 227 230 226 220 217 214 211 208 203 200 200 200 199 199 199 199 201 201 202 203 206
224 256 308 259 155 225 234 239 232 239 240 243 258 265 260 246 253 255 256 241 236 231 232 235 234 228 222 219 214 211 208 204 202 202 201 200 201 201 202 203 204 204 207 210
213 223 243 264 254 266 275 249 210 224 246 241 241 253 257 261 264 263 257 258 252 249 248 249 243 231 220 216 212 209 206 204 204 204 202 203 203 203 204 206 206 207 211 215
220 216 221 243 261 269 242 249 224 222 251 242 234 245 257 256 252 259 257 250 250 250 248 241 231 225 219 215 210 208 205 204 205 206 204 204 205 205 207 207 208 212 214 219
199 214 222 235 249 251 256 266 247 214 237 260 236 245 254 243 238 256 265 259 260 255 244 236 230 225 222 213 208 207 206 206 206 205 205 206 206 206 208 209 211 213 218 222
217 214 225 230 244 256 242 272 219 235 247 307 325 305 282 257 264 263 264 256 254 250 238 236 228 221 217 213 208 207 207 206 205 204 205 206 206 206 208 210 212 215 219 225
244 224 243 228 252 273 287 325 305 308 304 308 316 307 312 312 297 289 276 262 252 247 237 234 226 217 214 213 211 209 207 205 203 203 204 205 206 209 211 212 214 217 221 227
252 250 244 262 260 263 275 286 285 286 288 287 299 309 303 309 307 300 293 277 260 242 231 226 217 214 212 212 211 211 207 204 203 204 204 204 207 209 210 213 217 222 227 231
247 9 247 257 263 271 267 269 274 276 274 274 275 286 301 311 310 308 293 277 258 243 226 222 217 215 214 211 208 207 207 205 202 203 203 204 207 210 212 217 222 227 232 238
225 239 230 247 251 242 264 272 278 263 277 283 289 305 290 290 306 313 292 282 263 237 223 218 214 213 213 210 207 207 207 205 203 201 202 204 207 209 213 218 222 226 230 237
Wind_Speed_850mb
13 6 8 17 15 10 4 12 10 10 7 3 25 23 17 33 29 32 34 32 29 26 22 17 18 18 21 22 23 22 24 21 16 9 10 11 5 3 6 10 12 10 12 11
5 10 11 12 9 5 4 10 9 5 7 3 14 23 23 25 36 45 41 36 32 31 28 23 22 25 26 29 28 28 26 22 22 17 18 16 12 5 7 8 6 6 6 9
10 5 12 11 7 8 8 8 7 5 8 7 9 21 25 23 35 41 40 44 46 49 39 34 31 31 33 32 31 30 28 24 18 16 19 14 10 8 7 4 2 2 6 7
13 8 10 13 13 12 9 12 4 10 6 5 11 12 11 29 34 34 47 54 62 55 43 41 37 35 34 32 29 29 27 23 20 19 15 13 11 14 11 9 5 2 3 4
3 13 9 12 13 12 1 8 4 5 9 11 11 9 10 13 26 30 46 53 52 57 53 49 43 38 37 32 32 29 27 25 23 24 23 23 25 19 15 12 10 4 1 1
10 8 3 11 11 10 8 6 4 3 6 6 20 15 8 7 15 19 37 53 59 58 55 50 42 44 37 33 34 31 30 27 26 27 26 26 19 18 18 17 12 6 5 3
14 13 4 1 9 11 10 8 1 4 3 10 2 15 18 25 14 16 19 53 60 58 56 53 53 48 39 34 34 34 32 30 29 26 25 24 24 21 21 19 13 11 8 8
16 9 20 16 15 10 19 15 8 8 4 7 5 12 10 5 4 11 11 13 56 57 58 55 53 45 41 37 37 36 36 35 32 29 29 27 26 24 23 20 17 14 15 16
8 15 11 21 11 15 15 22 17 13 4 2 10 13 16 9 4 2 9 37 60 62 61 59 52 46 46 43 41 40 36 36 34 32 30 29 28 28 25 22 20 23 21 19
10 10 2 8 4 15 8 2 13 7 5 10 12 15 16 9 13 13 14 34 48 54 52 50 50 52 49 44 42 40 38 37 38 39 36 33 31 27 26 27 27 25 24 21
7 5 5 8 12 14 7 6 11 13 11 6 6 9 6 8 5 17 22 34 49 53 54 56 57 54 50 47 45 46 46 44 42 39 37 36 35 35 31 29 27 28 24 21
13 3 15 16 14 14 22 32 26 10 9 13 13 23 11 14 13 20 33 42 42 52 54 57 57 57 56 52 50 49 48 46 42 37 37 37 36 35 34 34 32 28 23 19
14 9 9 12 3 7 10 20 17 25 15 23 9 13 3 14 11 11 28 39 44 49 54 56 56 61 59 56 55 53 53 51 48 46 47 47 43 40 39 35 32 29 25 21
1 8 19 26 21 16 13 26 30 29 21 42 35 54 9 9 14 21 27 40 46 56 56 58 61 64 64 61 58 59 58 56 53 52 52 49 46 43 41 37 34 29 25 22
8 10 8 26 31 26 28 16 35 34 43 33 58 50 41 32 21 37 46 48 51 58 60 64 68 69 69 68 67 64 60 59 59 60 57 53 50 47 43 39 35 30 27 25
15 14 20 37 42 26 30 32 18 34 53 48 55 56 42 33 24 13 47 55 62 64 64 65 70 71 77 79 74 70 69 68 67 66 61 58 55 50 46 42 37 33 31 28
8 8 13 27 29 26 31 43 49 45 27 34 38 67 28 25 24 45 51 60 71 72 69 69 75 77 81 83 79 78 75 73 74 71 66 62 58 54 49 44 40 37 34 30
12 15 8 19 8 30 19 26 50 53 52 48 44 50 43 35 50 66 73 71 81 75 70 70 73 77 82 83 82 80 80 80 79 75 70 66 61 56 52 47 44 40 36 32
39 17 9 11 16 22 16 17 17 26 55 53 52 68 87 72 67 71 100 86 88 88 79 78 81 82 82 86 88 87 87 85 83 81 75 71 65 60 56 52 47 43 39 33
32 30 19 22 26 18 31 43 33 20 32 48 53 61 55 54 25 41 81 94 96 96 91 91 88 86 84 89 94 96 95 94 92 86 78 71 66 62 58 53 49 44 39 36
9 13 32 33 26 22 32 40 11 31 25 55 64 71 70 34 46 106 63 53 71 85 93 87 88 93 89 96 101 105 102 103 96 85 79 74 68 62 58 54 50 46 43 38
16 10 20 15 26 51 28 26 48 16 43 50 33 58 42 49 66 84 83 78 70 61 69 80 88 92 92 99 105 108 108 102 95 88 81 76 70 66 61 57 52 49 45 41
20 28 19 18 29 17 33 18 57 67 61 55 47 57 60 60 61 59 56 62 71 72 69 76 84 90 94 101 106 110 108 105 98 91 85 77 71 67 61 57 55 52 47 43
16 14 21 9 53 50 86 84 46 46 52 67 57 42 50 65 77 83 70 64 66 72 76 83 90 96 101 104 106 107 110 105 99 93 86 79 74 70 64 59 56 52 49 46
19 1 11 40 56 56 89 72 76 83 75 65 59 54 60 71 80 77 78 74 72 73 79 86 95 101 103 104 108 111 108 105 102 93 86 81 76 69 64 60 55 52 47 44
37 39 24 35 43 39 52 61 37 34 49 59 63 77 75 75 84 84 80 71 69 74 80 86 91 96 98 101 108 110 109 106 100 94 88 82 75 69 64 60 57 54 50 48
Wind_Direction_850mb
199 209 184 188 193 72 28 165 197 220 141 270 242 254 211 194 207 220 202 193 196 205 207 210 197 193 183 185 201 213 227 234 235 207 179 224 243 273 65 71 71 60 57 55
118 239 202 52 61 103 275 181 212 168 95 153 292 277 265 208 205 207 208 203 202 202 204 203 202 195 193 191 200 208 221 224 217 201 213 222 211 197 109 102 72 58 21 30
206 82 195 131 176 200 224 252 224 247 141 219 295 273 239 243 207 209 216 213 206 214 208 204 200 199 200 204 202 213 219 224 216 206 217 210 193 164 158 154 112 36 13 51
247 172 169 148 224 207 246 177 271 283 171 260 138 291 250 225 224 198 208 212 205 207 209 208 205 205 210 207 206 211 218 219 216 196 193 184 210 224 219 193 198 150 14 21
185 141 172 188 216 207 82 83 135 203 250 274 185 274 273 229 220 212 211 210 206 207 208 201 207 208 215 210 212 211 215 214 210 202 192 200 211 228 204 199 212 208 195 87
231 22 254 219 204 214 104 164 166 286 240 279 217 180 252 197 231 232 211 210 209 203 203 203 207 214 214 211 216 212 213 209 208 209 213 214 214 201 202 204 204 186 169 162
249 207 150 357 226 184 159 162 307 263 241 237 185 186 246 281 244 221 207 204 205 199 197 198 204 211 215 213 217 210 208 207 209 211 213 214 213 211 209 204 200 188 183 165
210 220 165 183 212 173 207 198 180 226 233 308 29 243 259 171 80 61 189 228 192 191 194 199 208 212 211 214 213 210 205 205 206 205 207 208 209 208 209 209 199 188 169 154
243 225 131 152 195 206 183 219 238 316 350 349 239 256 286 93 107 220 208 171 179 187 192 202 212 211 211 212 214 212 208 205 205 204 208 211 210 210 207 205 190 175 164 156
314 294 94 103 60 280 255 169 207 232 227 241 245 245 243 220 223 185 190 174 174 186 195 205 209 208 212 212 213 213 211 211 208 206 208 210 211 203 197 185 178 170 168 159
176 271 356 71 210 188 193 231 236 176 213 228 296 259 239 108 109 182 184 186 181 185 192 199 206 214 212 210 210 212 211 210 211 209 207 202 194 189 183 183 178 177 171 164
191 274 243 204 221 224 231 218 215 209 223 220 252 257 241 170 151 157 182 190 194 200 201 211 217 216 213 211 212 212 211 212 214 210 201 194 189 184 184 184 183 178 177 175
165 223 254 316 224 199 221 235 244 241 255 250 206 263 53 93 133 173 175 189 196 202 208 216 217 215 215 213 213 213 212 210 207 200 194 190 192 191 189 187 186 186 184 183
310 239 201 222 221 160 200 219 227 224 232 242 238 252 247 201 198 190 200 201 200 203 210 214 218 217 215 216 217 214 209 206 202 197 195 194 193 193 191 191 192 191 191 188
127 243 304 279 271 273 264 224 224 227 234 231 242 248 247 251 253 215 224 197 195 205 211 214 219 219 216 215 214 211 209 204 200 197 197 195 196 195 194 194 196 196 195 196
175 241 241 265 267 263 272 270 256 237 235 242 253 260 253 247 279 238 191 196 203 212 221 223 225 222 216 216 214 210 208 203 200 199 198 198 198 197 197 198 199 199 199 201
293 230 198 243 243 262 253 236 243 245 255 240 239 248 258 254 250 255 218 215 221 228 226 227 230 226 220 217 214 211 208 203 200 200 200 199 199 199 199 201 201 202 203 206
224 256 308 259 155 225 234 239 232 239 240 243 258 265 260 246 253 255 256 241 236 231 232 235 234 228 222 219 214 211 208 204 202 202 201 200 201 201 202 203 204 204 207 210
213 223 243 264 254 266 275 249 210 224 246 241 241 253 257 261 264 263 257 258 252 249 248 249 243 231 220 216 212 209 206 204 204 204 202 203 203 203 204 206 206 207 211 215
220 216 221 243 261 269 242 249 224 222 251 242 234 245 257 256 252 259 257 250 250 250 248 241 231 225 219 215 210 208 205 204 205 206 204 204 205 205 207 207 208 212 214 219
199 214 222 235 249 251 256 266 247 214 237 260 236 245 254 243 238 256 265 259 260 255 244 236 230 225 222 213 208 207 206 206 206 205 205 206 206 206 208 209 211 213 218 222
217 214 225 230 244 256 242 272 219 235 247 307 325 305 282 257 264 263 264 256 254 250 238 236 228 221 217 213 208 207 207 206 205 204 205 206 206 206 208 210 212 215 219 225
244 224 243 228 252 273 287 325 305 308 304 308 316 307 312 312 297 289 276 262 252 247 237 234 226 217 214 213 211 209 207 205 203 203 204 205 206 209 211 212 214 217 221 227
252 250 244 262 260 263 275 286 285 286 288 287 299 309 303 309 307 300 293 277 260 242 231 226 217 214 212 212 211 211 207 204 203 204 204 204 207 209 210 213 217 222 227 231
247 9 247 257 263 271 267 269 274 276 274 274 275 286 301 311 310 308 293 277 258 243 226 222 217 215 214 211 208 207 207 205 202 203 203 204 207 210 212 217 222 227 232 238
225 239 230 247 251 242 264 272 278 263 277 283 289 305 290 290 306 313 292 282 263 237 223 218 214 213 213 210 207 207 207 205 203 201 202 204 207 209 213 218 222 226 230 237